| time (UTC) | temp C | wind direction | speed KPH | gust KPH | rain 1hr cm | rain 24hr cm | rain mn cm | humidity % | barometer mb |
| 20260503192517 | 14 | 338 | 6.4 | 17.7 | 0.00 | 0.00 | 0.00 | 34 | 1012.2 |
| 20260503192017 | 14 | 315 | 8.0 | 19.3 | 0.00 | 0.00 | 0.00 | 34 | 1012.6 |
| 20260503191517 | 13 | 338 | 4.8 | 14.5 | 0.00 | 0.00 | 0.00 | 37 | 1012.5 |
| 20260503191017 | 13 | 315 | 4.8 | 12.9 | 0.00 | 0.00 | 0.00 | 36 | 1012.5 |
| 20260503190517 | 14 | 338 | 6.4 | 14.5 | 0.00 | 0.00 | 0.00 | 35 | 1012.4 |
| 20260503190017 | 13 | 315 | 4.8 | 17.7 | 0.00 | 0.00 | 0.00 | 36 | 1012.6 |
| 20260503185517 | 13 | 315 | 3.2 | 9.7 | 0.00 | 0.00 | 0.00 | 38 | 1012.6 |
| 20260503185017 | 13 | 338 | 4.8 | 11.3 | 0.00 | 0.00 | 0.00 | 38 | 1012.6 |
| 20260503184517 | 13 | 338 | 8.0 | 19.3 | 0.00 | 0.00 | 0.00 | 36 | 1012.8 |
| 20260503184017 | 13 | 315 | 8.0 | 20.9 | 0.00 | 0.00 | 0.00 | 37 | 1012.9 |
| 20260503183517 | 13 | 315 | 4.8 | 9.7 | 0.00 | 0.00 | 0.00 | 37 | 1012.9 |
| 20260503183017 | 13 | 338 | 6.4 | 11.3 | 0.00 | 0.00 | 0.00 | 39 | 1013.0 |
| 20260503182517 | 12 | 338 | 3.2 | 14.5 | 0.00 | 0.00 | 0.00 | 39 | 1013.1 |
| 20260503182017 | 12 | 0 | 6.4 | 16.1 | 0.00 | 0.00 | 0.00 | 38 | 1013.1 |
| 20260503181517 | 12 | 315 | 8.0 | 17.7 | 0.00 | 0.00 | 0.00 | 39 | 1013.2 |
| 20260503181017 | 12 | 338 | 8.0 | 16.1 | 0.00 | 0.00 | 0.00 | 39 | 1012.9 |
| 20260503180517 | 12 | 315 | 6.4 | 17.7 | 0.00 | 0.00 | 0.00 | 39 | 1013.1 |
| 20260503180017 | 12 | 315 | 6.4 | 16.1 | 0.00 | 0.00 | 0.00 | 43 | 1013.0 |
| 20260503175517 | 12 | 315 | 8.0 | 16.1 | 0.00 | 0.00 | 0.00 | 41 | 1013.1 |
| 20260503175017 | 12 | 315 | 6.4 | 12.9 | 0.00 | 0.00 | 0.00 | 41 | 1013.3 |
| 20260503174517 | 11 | 315 | 4.8 | 12.9 | 0.00 | 0.00 | 0.00 | 45 | 1013.2 |
| 20260503174017 | 11 | 315 | 4.8 | 11.3 | 0.00 | 0.00 | 0.00 | 43 | 1013.2 |
| 20260503173517 | 11 | 315 | 6.4 | 16.1 | 0.00 | 0.00 | 0.00 | 43 | 1013.3 |
| 20260503173017 | 11 | 315 | 4.8 | 14.5 | 0.00 | 0.00 | 0.00 | 44 | 1013.1 |
| 20260503172517 | 11 | 315 | 6.4 | 20.9 | 0.00 | 0.00 | 0.00 | 43 | 1013.3 |
| 20260503172017 | 11 | 315 | 4.8 | 19.3 | 0.00 | 0.00 | 0.00 | 44 | 1013.4 |
| 20260503171747 | 11 | 315 | 3.2 | 12.9 | 0.00 | 0.00 | 0.00 | 45 | 1013.4 |
| 20260503171517 | 11 | 315 | 3.2 | 12.9 | 0.00 | 0.00 | 0.00 | 45 | 1013.4 |
| 20260503171017 | 11 | 338 | 4.8 | 11.3 | 0.00 | 0.00 | 0.00 | 44 | 1013.4 |
| 20260503170517 | 11 | 338 | 6.4 | 12.9 | 0.00 | 0.00 | 0.00 | 44 | 1013.4 |
| 20260503160149 | 10 | 338 | 3.2 | 9.7 | 0.00 | 0.00 | 0.00 | 46 | 1013.9 |
| 20260503150642 | 10 | 338 | 4.8 | 14.5 | 0.00 | 0.00 | 0.00 | 47 | 1014.1 |
| 20260503150517 | 10 | 338 | 4.8 | 14.5 | 0.00 | 0.00 | 0.00 | 47 | 1014.1 |
| 20260503131016 | 8 | 315 | 4.8 | 8.0 | 0.00 | 0.00 | 0.00 | 57 | 1013.9 |
| 20260503130517 | 8 | 338 | 4.8 | 9.7 | 0.00 | 0.00 | 0.00 | 57 | 1013.9 |
| 20260503110516 | 7 | 0 | 3.2 | 8.0 | 0.00 | 0.00 | 0.00 | 61 | 1013.1 |
| 20260503100149 | 7 | 0 | 1.6 | 9.7 | 0.00 | 0.00 | 0.00 | 58 | |
| 20260503090434 | 7 | 0.0 | 4.8 | 0.00 | 0.00 | 0.00 | 59 | 1011.8 | |
| 20260503081516 | 7 | 0.0 | 3.2 | 0.00 | 0.00 | 0.00 | 58 | 1011.6 | |
| 20260503081016 | 7 | 0.0 | 1.6 | 0.00 | 0.00 | 0.00 | 58 | 1011.5 | |
| 20260503080516 | 7 | 0.0 | 1.6 | 0.00 | 0.00 | 0.00 | 57 | 1011.5 | |
| 20260503072516 | 8 | 0.0 | 3.2 | 0.00 | 0.00 | 0.00 | 55 | 1011.5 | |
| 20260503072016 | 8 | 23 | 1.6 | 4.8 | 0.00 | 0.00 | 0.00 | 55 | 1011.5 |
| 20260503071919 | 8 | 0.0 | 4.8 | 0.00 | 0.00 | 0.00 | 56 | 1011.5 | |
| 20260503071516 | 8 | 0.0 | 4.8 | 0.00 | 0.00 | 0.00 | 56 | 1011.5 | |
| 20260503071016 | 8 | 0.0 | 1.6 | 0.00 | 0.00 | 0.00 | 56 | 1011.5 | |
| 20260503070854 | 8 | 0.0 | 1.6 | 0.00 | 0.00 | 0.00 | 55 | 1011.5 | |
| 20260503070516 | 8 | 0.0 | 1.6 | 0.00 | 0.00 | 0.00 | 55 | 1011.5 | |
| 20260503070340 | 8 | 0.0 | 1.6 | 0.00 | 0.00 | 0.00 | 55 | 1011.5 | |
| 20260503055016 | 9 | 0.0 | 1.6 | 0.00 | 0.00 | 0.00 | 53 | 1011.5 | |
| 20260503054516 | 9 | 0.0 | 1.6 | 0.00 | 0.00 | 0.00 | 53 | 1011.7 | |
| 20260503054016 | 9 | 0.0 | 1.6 | 0.00 | 0.00 | 0.00 | 53 | 1011.8 | |
| 20260503053516 | 9 | 0.0 | 1.6 | 0.00 | 0.00 | 0.00 | 53 | 1011.7 | |
| 20260503053016 | 9 | 0.0 | 1.6 | 0.00 | 0.00 | 0.00 | 53 | 1011.8 | |
| 20260503052516 | 9 | 0.0 | 1.6 | 0.00 | 0.00 | 0.00 | 53 | 1011.8 | |
| 20260503052016 | 9 | 0.0 | 1.6 | 0.00 | 0.00 | 0.00 | 53 | 1011.8 | |
| 20260503051516 | 9 | 0.0 | 1.6 | 0.00 | 0.00 | 0.00 | 53 | 1011.9 | |
| 20260503051016 | 9 | 0.0 | 3.2 | 0.00 | 0.00 | 0.00 | 53 | 1011.9 | |
| 20260503050516 | 9 | 0.0 | 1.6 | 0.00 | 0.00 | 0.00 | 54 | 1012.0 | |
| 20260503050016 | 9 | 0.0 | 1.6 | 0.00 | 0.00 | 0.00 | 53 | 1012.0 | |
| 20260503045516 | 9 | 0.0 | 1.6 | 0.00 | 0.00 | 0.00 | 53 | 1012.3 | |
| 20260503045016 | 9 | 0.0 | 3.2 | 0.00 | 0.00 | 0.00 | 52 | 1012.3 | |
| 20260503044516 | 9 | 0.0 | 3.2 | 0.00 | 0.00 | 0.00 | 52 | 1012.4 | |
| 20260503044016 | 10 | 0.0 | 1.6 | 0.00 | 0.00 | 0.00 | 52 | 1012.3 | |
| 20260503043516 | 10 | 0.0 | 1.6 | 0.00 | 0.00 | 0.00 | 52 | 1012.3 | |
| 20260503043016 | 10 | 0.0 | 1.6 | 0.00 | 0.00 | 0.00 | 51 | 1012.2 | |
| 20260503042516 | 10 | 0.0 | 3.2 | 0.00 | 0.00 | 0.00 | 51 | 1012.2 | |
| 20260503042300 | 10 | 0.0 | 1.6 | 0.00 | 0.00 | 0.00 | 51 | 1012.2 | |
| 20260503042016 | 10 | 0.0 | 1.6 | 0.00 | 0.00 | 0.00 | 51 | 1012.2 | |
| 20260503041516 | 10 | 0.0 | 4.8 | 0.00 | 0.00 | 0.00 | 51 | 1012.3 | |
| 20260503041016 | 10 | 338 | 1.6 | 3.2 | 0.00 | 0.00 | 0.00 | 51 | 1012.4 |
| 20260503040516 | 10 | 0.0 | 3.2 | 0.00 | 0.00 | 0.00 | 51 | 1012.3 | |
| 20260503040148 | 10 | 0.0 | 3.2 | 0.00 | 0.00 | 0.00 | 51 | 1012.4 | |
| 20260503040035 | 10 | 0.0 | 3.2 | 0.00 | 0.00 | 0.00 | 52 | 1012.3 | |
| 20260503035516 | 10 | 0.0 | 3.2 | 0.00 | 0.00 | 0.00 | 52 | 1012.3 | |
| 20260503035016 | 10 | 0.0 | 3.2 | 0.00 | 0.00 | 0.00 | 51 | 1012.4 | |
| 20260503034516 | 10 | 0.0 | 4.8 | 0.00 | 0.00 | 0.00 | 51 | 1012.4 | |
| 20260503034018 | 10 | 0.0 | 3.2 | 0.00 | 0.00 | 0.00 | 52 | 1012.2 | |
| 20260503033518 | 10 | 0.0 | 1.6 | 0.00 | 0.00 | 0.00 | 52 | 1012.3 | |
| 20260503033018 | 10 | 0.0 | 1.6 | 0.00 | 0.00 | 0.00 | 51 | 1012.3 | |
| 20260503032518 | 10 | 0.0 | 1.6 | 0.00 | 0.00 | 0.00 | 51 | 1012.3 | |
| 20260503032018 | 10 | 0.0 | 3.2 | 0.00 | 0.00 | 0.00 | 50 | 1012.2 | |
| 20260503031518 | 10 | 0.0 | 3.2 | 0.00 | 0.00 | 0.00 | 50 | 1012.2 | |
| 20260503031018 | 10 | 0.0 | 1.6 | 0.00 | 0.00 | 0.00 | 50 | 1012.3 | |
| 20260503030518 | 10 | 0.0 | 1.6 | 0.00 | 0.00 | 0.00 | 50 | 1012.3 | |
| 20260503030018 | 11 | 0.0 | 1.6 | 0.00 | 0.00 | 0.00 | 50 | 1012.3 | |
| 20260503025518 | 11 | 0.0 | 1.6 | 0.00 | 0.00 | 0.00 | 49 | 1012.3 | |
| 20260503025018 | 11 | 0.0 | 3.2 | 0.00 | 0.00 | 0.00 | 49 | 1012.3 | |
| 20260503024518 | 11 | 0.0 | 4.8 | 0.00 | 0.00 | 0.00 | 49 | 1012.3 | |
| 20260503024018 | 11 | 0.0 | 1.6 | 0.00 | 0.00 | 0.00 | 49 | 1012.3 | |
| 20260503023518 | 11 | 0.0 | 4.8 | 0.00 | 0.00 | 0.00 | 49 | 1012.4 | |
| 20260503023018 | 11 | 0.0 | 3.2 | 0.00 | 0.00 | 0.00 | 49 | 1012.3 | |
| 20260503022518 | 11 | 0.0 | 4.8 | 0.00 | 0.00 | 0.00 | 49 | 1012.3 | |
| 20260503022018 | 11 | 0.0 | 4.8 | 0.00 | 0.00 | 0.00 | 49 | 1012.4 | |
| 20260503021518 | 11 | 0.0 | 1.6 | 0.00 | 0.00 | 0.00 | 49 | 1012.3 | |
| 20260503021018 | 11 | 0.0 | 3.2 | 0.00 | 0.00 | 0.00 | 50 | 1012.3 | |
| 20260503020518 | 11 | 0.0 | 4.8 | 0.00 | 0.00 | 0.00 | 50 | 1012.2 | |
| 20260503020017 | 11 | 0.0 | 3.2 | 0.00 | 0.00 | 0.00 | 50 | 1012.1 | |
| 20260503015518 | 11 | 0.0 | 1.6 | 0.00 | 0.00 | 0.00 | 50 | 1012.1 | |
| 20260503015018 | 11 | 0.0 | 1.6 | 0.00 | 0.00 | 0.00 | 49 | 1012.2 | |
| 20260503014518 | 11 | 0.0 | 1.6 | 0.00 | 0.00 | 0.00 | 49 | 1012.2 | |
| 20260503014016 | 11 | 0.0 | 6.4 | 0.00 | 0.00 | 0.00 | 49 | 1012.2 | |
| 20260503013518 | 11 | 0.0 | 4.8 | 0.00 | 0.00 | 0.00 | 49 | 1012.1 | |
| 20260503013018 | 11 | 0.0 | 1.6 | 0.00 | 0.00 | 0.00 | 48 | 1012.3 | |
| 20260503012517 | 12 | 0.0 | 1.6 | 0.00 | 0.00 | 0.00 | 48 | 1012.3 | |
| 20260503012018 | 12 | 0.0 | 6.4 | 0.00 | 0.00 | 0.00 | 48 | 1012.3 | |
| 20260503011518 | 12 | 0.0 | 1.6 | 0.00 | 0.00 | 0.00 | 49 | 1012.2 | |
| 20260503011018 | 12 | 0.0 | 0.0 | 0.00 | 0.00 | 0.00 | 49 | 1012.2 | |
| 20260503010518 | 12 | 0.0 | 1.6 | 0.00 | 0.00 | 0.00 | 48 | 1012.1 | |
| 20260503010017 | 12 | 0.0 | 1.6 | 0.00 | 0.00 | 0.00 | 49 | 1012.1 | |
| 20260503005518 | 12 | 0.0 | 0.0 | 0.00 | 0.00 | 0.00 | 49 | 1012.0 | |
| 20260503005018 | 12 | 0.0 | 1.6 | 0.00 | 0.00 | 0.00 | 48 | 1012.0 | |
| 20260503004518 | 12 | 0.0 | 1.6 | 0.00 | 0.00 | 0.00 | 48 | 1011.8 | |
| 20260503004018 | 12 | 0.0 | 1.6 | 0.00 | 0.00 | 0.00 | 48 | 1011.8 | |
| 20260503003517 | 12 | 0.0 | 1.6 | 0.00 | 0.00 | 0.00 | 47 | 1011.8 | |
| 20260503003018 | 12 | 0.0 | 1.6 | 0.00 | 0.00 | 0.00 | 47 | 1011.8 | |
| 20260503002517 | 12 | 0.0 | 1.6 | 0.00 | 0.00 | 0.00 | 46 | 1011.6 | |
| 20260503002017 | 12 | 0.0 | 0.0 | 0.00 | 0.00 | 0.00 | 46 | 1011.7 | |
| 20260503001518 | 12 | 0.0 | 1.6 | 0.00 | 0.00 | 0.00 | 46 | 1011.5 | |
| 20260503001018 | 12 | 0.0 | 1.6 | 0.00 | 0.00 | 0.00 | 46 | 1011.6 | |
| 20260503000658 | 13 | 0.0 | 1.6 | 0.00 | 0.00 | 0.00 | 45 | 1011.6 | |
| 20260503000518 | 13 | 0.0 | 1.6 | 0.00 | 0.00 | 0.00 | 45 | 1011.6 | |
| 20260503000017 | 13 | 0.0 | 1.6 | 0.00 | 0.00 | 0.00 | 45 | 1011.5 | |
| 20260502235518 | 13 | 0.0 | 3.2 | 0.00 | 0.00 | 0.00 | 44 | 1011.5 | |
| 20260502235018 | 13 | 0.0 | 1.6 | 0.00 | 0.00 | 0.00 | 44 | 1011.6 | |
| 20260502234518 | 13 | 0.0 | 1.6 | 0.00 | 0.00 | 0.00 | 43 | 1011.5 | |
| 20260502234017 | 13 | 0.0 | 1.6 | 0.00 | 0.00 | 0.00 | 43 | 1011.5 | |
| 20260502233517 | 13 | 338 | 1.6 | 3.2 | 0.00 | 0.00 | 0.00 | 42 | 1011.3 |
| 20260502233018 | 13 | 0 | 1.6 | 4.8 | 0.00 | 0.00 | 0.00 | 42 | 1011.5 |
| 20260502232518 | 14 | 0 | 1.6 | 3.2 | 0.00 | 0.00 | 0.00 | 42 | 1011.5 |
| 20260502232017 | 14 | 338 | 1.6 | 6.4 | 0.00 | 0.00 | 0.00 | 41 | 1011.5 |
| 20260502231517 | 14 | 0 | 3.2 | 6.4 | 0.00 | 0.00 | 0.00 | 41 | 1011.5 |
| 20260502231018 | 14 | 338 | 3.2 | 9.7 | 0.00 | 0.00 | 0.00 | 39 | 1011.4 |
| 20260502230517 | 15 | 338 | 1.6 | 8.0 | 0.00 | 0.00 | 0.00 | 40 | 1011.3 |
| 20260502230018 | 15 | 315 | 1.6 | 3.2 | 0.00 | 0.00 | 0.00 | 39 | 1011.3 |
| 20260502225517 | 15 | 338 | 1.6 | 4.8 | 0.00 | 0.00 | 0.00 | 39 | 1011.3 |
| 20260502225017 | 15 | 0.0 | 1.6 | 0.00 | 0.00 | 0.00 | 38 | 1011.1 | |
| 20260502224517 | 15 | 0.0 | 6.4 | 0.00 | 0.00 | 0.00 | 37 | 1011.1 | |
| 20260502224017 | 15 | 0.0 | 3.2 | 0.00 | 0.00 | 0.00 | 38 | 1011.2 | |
| 20260502223518 | 15 | 0.0 | 6.4 | 0.00 | 0.00 | 0.00 | 40 | 1011.2 | |
| 20260502223017 | 15 | 0 | 1.6 | 6.4 | 0.00 | 0.00 | 0.00 | 39 | 1011.1 |
| 20260502222518 | 15 | 338 | 1.6 | 6.4 | 0.00 | 0.00 | 0.00 | 40 | 1011.1 |
| 20260502222239 | 15 | 338 | 3.2 | 9.7 | 0.00 | 0.00 | 0.00 | 39 | 1011.0 |
| 20260502222017 | 15 | 338 | 3.2 | 9.7 | 0.00 | 0.00 | 0.00 | 39 | 1011.0 |
| 20260502221517 | 15 | 0.0 | 3.2 | 0.00 | 0.00 | 0.00 | 39 | 1011.1 | |
| 20260502221017 | 15 | 315 | 1.6 | 4.8 | 0.00 | 0.00 | 0.00 | 38 | 1011.1 |
| 20260502220517 | 15 | 338 | 1.6 | 3.2 | 0.00 | 0.00 | 0.00 | 39 | 1011.1 |
| 20260502220152 | 15 | 315 | 3.2 | 6.4 | 0.00 | 0.00 | 0.00 | 39 | 1011.1 |
| 20260502220034 | 15 | 315 | 3.2 | 9.7 | 0.00 | 0.00 | 0.00 | 39 | 1011.1 |
| 20260502215517 | 15 | 315 | 3.2 | 9.7 | 0.00 | 0.00 | 0.00 | 39 | 1011.1 |
| 20260502215432 | 15 | 23 | 1.6 | 4.8 | 0.00 | 0.00 | 0.00 | 39 | 1011.1 |
| 20260502215017 | 15 | 23 | 1.6 | 4.8 | 0.00 | 0.00 | 0.00 | 39 | 1011.1 |
| 20260502214517 | 15 | 338 | 1.6 | 6.4 | 0.00 | 0.00 | 0.00 | 40 | 1011.1 |
| 20260502214331 | 15 | 338 | 3.2 | 8.0 | 0.00 | 0.00 | 0.00 | 39 | 1011.0 |
| 20260502214017 | 15 | 338 | 3.2 | 8.0 | 0.00 | 0.00 | 0.00 | 39 | 1011.0 |
| 20260502213921 | 15 | 338 | 3.2 | 8.0 | 0.00 | 0.00 | 0.00 | 39 | 1010.9 |
| 20260502213517 | 15 | 338 | 3.2 | 8.0 | 0.00 | 0.00 | 0.00 | 39 | 1010.9 |
| 20260502213413 | 15 | 0.0 | 4.8 | 0.00 | 0.00 | 0.00 | 40 | 1010.9 | |
| 20260502213017 | 15 | 0.0 | 4.8 | 0.00 | 0.00 | 0.00 | 40 | 1010.9 | |
| 20260502212937 | 15 | 0.0 | 1.6 | 0.00 | 0.00 | 0.00 | 41 | 1010.9 | |
| 20260502212518 | 15 | 0.0 | 1.6 | 0.00 | 0.00 | 0.00 | 41 | 1010.9 | |
| 20260502212443 | 15 | 315 | 1.6 | 6.4 | 0.00 | 0.00 | 0.00 | 40 | 1010.7 |
| 20260502212017 | 15 | 315 | 1.6 | 6.4 | 0.00 | 0.00 | 0.00 | 40 | 1010.7 |
| 20260502211904 | 15 | 0.0 | 3.2 | 0.00 | 0.00 | 0.00 | 39 | 1010.7 | |
| 20260502211622 | 15 | 248 | 1.6 | 4.8 | 0.00 | 0.00 | 0.00 | 41 | 1010.6 |
| 20260502211517 | 15 | 0.0 | 3.2 | 0.00 | 0.00 | 0.00 | 39 | 1010.7 | |
| 20260502211017 | 15 | 248 | 1.6 | 4.8 | 0.00 | 0.00 | 0.00 | 41 | 1010.6 |
| 20260502210517 | 15 | 315 | 1.6 | 6.4 | 0.00 | 0.00 | 0.00 | 41 | 1010.6 |
| 20260502210017 | 15 | 315 | 1.6 | 4.8 | 0.00 | 0.00 | 0.00 | 41 | 1010.7 |
| 20260502205517 | 15 | 338 | 1.6 | 8.0 | 0.00 | 0.00 | 0.00 | 41 | 1010.7 |
| 20260502205017 | 15 | 338 | 1.6 | 6.4 | 0.00 | 0.00 | 0.00 | 40 | 1010.7 |
| 20260502204517 | 15 | 338 | 1.6 | 4.8 | 0.00 | 0.00 | 0.00 | 41 | 1010.8 |
| 20260502204017 | 15 | 315 | 3.2 | 11.3 | 0.00 | 0.00 | 0.00 | 42 | 1011.0 |
| 20260502203517 | 15 | 338 | 1.6 | 6.4 | 0.00 | 0.00 | 0.00 | 41 | 1011.0 |
| 20260502203017 | 15 | 23 | 1.6 | 9.7 | 0.00 | 0.00 | 0.00 | 42 | 1011.0 |
| 20260502202840 | 15 | 0 | 1.6 | 4.8 | 0.00 | 0.00 | 0.00 | 43 | 1011.1 |
| 20260502202517 | 15 | 0 | 1.6 | 4.8 | 0.00 | 0.00 | 0.00 | 43 | 1011.1 |
| 20260502202017 | 15 | 0 | 1.6 | 4.8 | 0.00 | 0.00 | 0.00 | 42 | 1011.1 |
| 20260502201517 | 15 | 338 | 3.2 | 4.8 | 0.00 | 0.00 | 0.00 | 41 | 1011.2 |
| 20260502201017 | 15 | 338 | 1.6 | 6.4 | 0.00 | 0.00 | 0.00 | 42 | 1011.1 |
| 20260502200517 | 15 | 0 | 3.2 | 9.7 | 0.00 | 0.00 | 0.00 | 42 | 1011.1 |
| 20260502200018 | 16 | 338 | 3.2 | 9.7 | 0.00 | 0.00 | 0.00 | 40 | 1011.2 |
| 20260502195517 | 16 | 45 | 1.6 | 4.8 | 0.00 | 0.00 | 0.00 | 39 | 1011.2 |
| 20260502195017 | 16 | 338 | 3.2 | 9.7 | 0.00 | 0.00 | 0.00 | 41 | 1011.3 |
| 20260502194517 | 16 | 23 | 1.6 | 6.4 | 0.00 | 0.00 | 0.00 | 42 | 1011.4 |
| 20260502194017 | 16 | 338 | 1.6 | 8.0 | 0.00 | 0.00 | 0.00 | 41 | 1011.5 |
| 20260502193517 | 16 | 23 | 1.6 | 4.8 | 0.00 | 0.00 | 0.00 | 41 | 1011.5 |
| 20260502193017 | 15 | 68 | 1.6 | 4.8 | 0.00 | 0.00 | 0.00 | 43 | 1011.6 |
| 20260502192834 | 15 | 0 | 3.2 | 9.7 | 0.00 | 0.00 | 0.00 | 42 | 1011.8 |